Tracking 29892 objects as of 21-Nov-2024
HD Live streaming from Space Station
objects crossing your sky now

STARLINK-31184

Track STARLINK-31184 now!
10-day predictions
STARLINK-31184 is classified as:


NORAD ID: 58793
Int'l Code: 2024-012G
Perigee: 494.2 km
Apogee: 496.1 km
Inclination: 43.0 °
Period: 94.4 minutes
Semi major axis: 6866 km
RCS: Unknown
Launch date: January 15, 2024
Source: United States (US)
Launch site: AIR FORCE EASTERN TEST RANGE (AFETR)
Your satellite tracking list
Your tracking list is empty




NASA's NSSDC Master Catalog

Two Line Element Set (TLE):
1 58793U 24012G   24326.06469137 -.00003079  00000-0 -10792-3 0  9997
2 58793  43.0017 316.3867 0001378 267.4791  92.5902 15.25910525 48765
Source of the keplerian elements: AFSPC